Stündliche Wetter Kyzyl-Mayak

Heute, 16 Mai, Sonntag

Zeit Temperatur Niederschläge Wind Luftdruck Luftfeuchtigkeit
00:00 +22°C° 0 mm 1 m/S 753 mmHg 41%
01:00 +21°C° 0 mm 1 m/S 753 mmHg 42%
02:00 +21°C° 0 mm 1 m/S 754 mmHg 43%
03:00 +20°C° 0 mm 1 m/S 754 mmHg 45%
04:00 +20°C° 0 mm 1 m/S 754 mmHg 46%
05:00 +21°C° 0 mm 1 m/S 754 mmHg 45%
06:00 +23°C° 0 mm 1 m/S 754 mmHg 44%
07:00 +24°C° 0 mm 1 m/S 754 mmHg 43%
08:00 +26°C° 0 mm 1 m/S 754 mmHg 40%
09:00 +27°C° 0 mm 2 m/S 754 mmHg 37%
10:00 +29°C° 0 mm 2 m/S 754 mmHg 34%
11:00 +30°C° 0 mm 2 m/S 754 mmHg 31%
12:00 +31°C° 0 mm 2 m/S 754 mmHg 27%
13:00 +32°C° 0 mm 2 m/S 754 mmHg 24%
14:00 +32°C° 0 mm 1 m/S 753 mmHg 23%
15:00 +32°C° 0 mm 1 m/S 753 mmHg 22%
16:00 +32°C° 0 mm 1 m/S 753 mmHg 22%
17:00 +31°C° 0 mm 1 m/S 753 mmHg 27%
18:00 +29°C° 0 mm 2 m/S 753 mmHg 32%
19:00 +28°C° 0 mm 2 m/S 752 mmHg 37%
20:00 +27°C° 0 mm 2 m/S 753 mmHg 38%
21:00 +26°C° 0 mm 2 m/S 753 mmHg 39%
22:00 +25°C° 0 mm 1 m/S 753 mmHg 40%
23:00 +24°C° 0 mm 1 m/S 753 mmHg 41%

Morgen, 17 Mai, Montag

Zeit Temperatur Niederschläge Wind Luftdruck Luftfeuchtigkeit
00:00 +24°C° 0 mm 2 m/S 753 mmHg 42%
01:00 +23°C° 0 mm 2 m/S 752 mmHg 44%
02:00 +23°C° 0 mm 1 m/S 753 mmHg 45%
03:00 +22°C° 0 mm 1 m/S 753 mmHg 47%
04:00 +22°C° 0 mm 1 m/S 753 mmHg 48%
05:00 +22°C° 0 mm 1 m/S 753 mmHg 48%
06:00 +23°C° 0 mm 1 m/S 753 mmHg 48%
07:00 +24°C° 0 mm 2 m/S 753 mmHg 48%
08:00 +26°C° 0 mm 2 m/S 753 mmHg 43%
09:00 +28°C° 0 mm 2 m/S 753 mmHg 38%
10:00 +30°C° 0 mm 2 m/S 753 mmHg 32%
11:00 +31°C° 0 mm 3 m/S 753 mmHg 29%
12:00 +33°C° 0 mm 3 m/S 753 mmHg 26%
13:00 +34°C° 0 mm 3 m/S 753 mmHg 23%
14:00 +34°C° 0 mm 3 m/S 753 mmHg 23%
15:00 +34°C° 0 mm 3 m/S 752 mmHg 22%
16:00 +34°C° 0 mm 3 m/S 752 mmHg 22%
17:00 +31°C° 0 mm 2 m/S 752 mmHg 28%
18:00 +29°C° 0 mm 2 m/S 752 mmHg 33%
19:00 +27°C° 0 mm 2 m/S 751 mmHg 39%
20:00 +26°C° 0 mm 2 m/S 752 mmHg 42%
21:00 +25°C° 0 mm 2 m/S 752 mmHg 44%
22:00 +23°C° 0 mm 1 m/S 752 mmHg 47%
23:00 +22°C° 0 mm 1 m/S 752 mmHg 48%

übermorgen, 18 Mai, Dienstag

Zeit Temperatur Niederschläge Wind Luftdruck Luftfeuchtigkeit
00:00 +22°C° 0 mm 1 m/S 752 mmHg 50%
01:00 +21°C° 0 mm 1 m/S 752 mmHg 51%
02:00 +21°C° 0 mm 1 m/S 751 mmHg 52%
03:00 +20°C° 0 mm 1 m/S 751 mmHg 53%
04:00 +20°C° 0 mm 1 m/S 751 mmHg 54%
05:00 +21°C° 0 mm 1 m/S 751 mmHg 52%
06:00 +23°C° 0 mm 1 m/S 751 mmHg 50%
07:00 +22°C° 0 mm 0 m/S 751 mmHg 47%
08:00 +24°C° 0 mm 0 m/S 751 mmHg 43%
09:00 +26°C° 0 mm 0 m/S 751 mmHg 39%
10:00 +29°C° 0 mm 1 m/S 751 mmHg 35%
11:00 +30°C° 0 mm 1 m/S 751 mmHg 31%
12:00 +31°C° 0 mm 1 m/S 751 mmHg 26%
13:00 +32°C° 0 mm 1 m/S 750 mmHg 22%
14:00 +32°C° 0 mm 2 m/S 750 mmHg 23%
15:00 +32°C° 0 mm 2 m/S 750 mmHg 23%
16:00 +32°C° 0 mm 2 m/S 750 mmHg 23%
17:00 +31°C° 0 mm 2 m/S 750 mmHg 30%
18:00 +29°C° 0 mm 2 m/S 750 mmHg 36%
19:00 +28°C° 0 mm 3 m/S 749 mmHg 42%
20:00 +26°C° 0 mm 3 m/S 750 mmHg 46%
21:00 +25°C° 0 mm 3 m/S 750 mmHg 50%
22:00 +22°C° 0 mm 3 m/S 750 mmHg 53%
23:00 +22°C° 0 mm 3 m/S 750 mmHg 59%

19 Mai, Mittwoch

Zeit Temperatur Niederschläge Wind Luftdruck Luftfeuchtigkeit
00:00 +21°C° 0 mm 3 m/S 750 mmHg 64%
01:00 +20°C° 0 mm 3 m/S 749 mmHg 70%
02:00 +20°C° 0 mm 3 m/S 749 mmHg 70%
03:00 +19°C° 0 mm 3 m/S 750 mmHg 70%
04:00 +19°C° 0 mm 3 m/S 750 mmHg 70%
05:00 +19°C° 0 mm 4 m/S 750 mmHg 67%
06:00 +19°C° 0 mm 5 m/S 750 mmHg 64%
07:00 +20°C° 0 mm 6 m/S 751 mmHg 61%
08:00 +21°C° 0 mm 6 m/S 751 mmHg 57%
09:00 +23°C° 0 mm 6 m/S 751 mmHg 53%
10:00 +24°C° 0 mm 6 m/S 751 mmHg 49%
11:00 +26°C° 0 mm 6 m/S 751 mmHg 47%
12:00 +26°C° 0 mm 6 m/S 751 mmHg 44%
13:00 +27°C° 0 mm 6 m/S 751 mmHg 42%
14:00 +27°C° 0 mm 6 m/S 751 mmHg 40%
15:00 +27°C° 0 mm 7 m/S 751 mmHg 38%
16:00 +27°C° 0 mm 7 m/S 752 mmHg 37%
17:00 +26°C° 0 mm 6 m/S 752 mmHg 41%
18:00 +23°C° 0 mm 5 m/S 751 mmHg 45%
19:00 +22°C° 0 mm 5 m/S 751 mmHg 50%
20:00 +21°C° 0 mm 5 m/S 752 mmHg 51%
21:00 +19°C° 0 mm 4 m/S 752 mmHg 53%
22:00 +18°C° 0 mm 4 m/S 753 mmHg 54%
23:00 +17°C° 0 mm 4 m/S 753 mmHg 53%

20 Mai, Donnerstag

Zeit Temperatur Niederschläge Wind Luftdruck Luftfeuchtigkeit
00:00 +16°C° 0 mm 5 m/S 753 mmHg 53%
01:00 +15°C° 0 mm 5 m/S 753 mmHg 52%
02:00 +15°C° 0 mm 4 m/S 753 mmHg 54%
03:00 +14°C° 0 mm 4 m/S 753 mmHg 55%
04:00 +13°C° 0 mm 4 m/S 754 mmHg 57%
05:00 +14°C° 0 mm 4 m/S 754 mmHg 55%
06:00 +15°C° 0 mm 5 m/S 754 mmHg 54%
07:00 +16°C° 0 mm 5 m/S 754 mmHg 52%
08:00 +19°C° 0 mm 6 m/S 754 mmHg 49%
09:00 +20°C° 0 mm 6 m/S 754 mmHg 45%
10:00 +22°C° 0 mm 7 m/S 754 mmHg 41%
11:00 +23°C° 0 mm 7 m/S 754 mmHg 39%
12:00 +24°C° 0 mm 7 m/S 754 mmHg 37%
13:00 +26°C° 0 mm 7 m/S 754 mmHg 34%
14:00 +26°C° 0 mm 7 m/S 754 mmHg 33%
15:00 +26°C° 0 mm 6 m/S 753 mmHg 32%
16:00 +26°C° 0 mm 6 m/S 753 mmHg 31%
17:00 +25°C° 0 mm 5 m/S 753 mmHg 37%
18:00 +23°C° 0 mm 4 m/S 753 mmHg 43%
19:00 +22°C° 0 mm 3 m/S 753 mmHg 49%
20:00 +21°C° 0 mm 3 m/S 753 mmHg 50%
21:00 +20°C° 0 mm 3 m/S 753 mmHg 51%
22:00 +18°C° 0 mm 3 m/S 753 mmHg 53%
23:00 +18°C° 0 mm 3 m/S 753 mmHg 53%

21 Mai, Freitag

Zeit Temperatur Niederschläge Wind Luftdruck Luftfeuchtigkeit
00:00 +17°C° 0 mm 3 m/S 753 mmHg 53%
01:00 +17°C° 0 mm 2 m/S 753 mmHg 53%
02:00 +16°C° 0 mm 2 m/S 754 mmHg 53%
03:00 +16°C° 0 mm 2 m/S 754 mmHg 53%
04:00 +16°C° 0 mm 2 m/S 754 mmHg 53%
05:00 +17°C° 0 mm 2 m/S 754 mmHg 52%
06:00 +18°C° 0 mm 3 m/S 755 mmHg 50%
07:00 +19°C° 0 mm 3 m/S 755 mmHg 49%
08:00 +21°C° 0 mm 4 m/S 755 mmHg 45%
09:00 +22°C° 0 mm 4 m/S 755 mmHg 41%
10:00 +25°C° 0 mm 4 m/S 755 mmHg 37%
11:00 +26°C° 0 mm 4 m/S 755 mmHg 35%
12:00 +27°C° 0 mm 4 m/S 755 mmHg 33%
13:00 +29°C° 0 mm 4 m/S 755 mmHg 32%
14:00 +29°C° 0 mm 4 m/S 755 mmHg 31%
15:00 +29°C° 0 mm 4 m/S 755 mmHg 31%
16:00 +29°C° 0 mm 3 m/S 755 mmHg 31%
17:00 +28°C° 0 mm 3 m/S 755 mmHg 36%
18:00 +27°C° 0 mm 3 m/S 755 mmHg 41%
19:00 +26°C° 0 mm 3 m/S 755 mmHg 46%
20:00 +24°C° 0 mm 3 m/S 755 mmHg 47%
21:00 +22°C° 0 mm 3 m/S 755 mmHg 47%
22:00 +20°C° 0 mm 2 m/S 755 mmHg 48%
23:00 +20°C° 0 mm 2 m/S 755 mmHg 48%
Mehr zeigen

Wir brauchen deine Erlaubnis

Meteoprog und unser Service Anbieter werden persönliche Daten aufbewahren, so wie Cookies, Geräte Bezeichnung oder ähnliche Technologien von deinem Gerät und Prozess, so wie Persönliche Daten Inhalte und Werbungen, genauso wie social Media und den Verkehr zu analysieren.

  • Aufbewahrung und/oder Zugang zu deiner Geräte Informationen.

    Cookies, Geräte Bezeichnung oder andere Informationen, können aufbewahrt oder Zugang zu deinem Gerät erhalten, für den Grund, der oben angegeben wird.

  • Personalisierte Werbung und Inhalte, Messungen, Einblick in das Publikum und Produkt Entwicklung.

    Werbungen und Inhalte können personalisiert werden, basierend auf ein Profil. Mehr Daten können besser personalisierte Werbungen und Inhalte hinzufügen. Werbung und Inhalte können gezeigt und gemessen werden. Einblicke über das Publikum, welche die Werbung gesehen haben und den Inhalt, können abgeleitet werden. So wie Daten können genutzt werden, um es zu verbessern oder die Benutzer Erfahrung zu verbessern das System und die Software.

Wenn du “Ich stimme zu” klickst, erlaubst du uns, die Cookies zu benutzen die Geräte Bezeichnung, den Web oder ähnliche Technologien zu benutzen. Deine Settings, können in deinem Gerät bei deinem Browser geändert werden.

Für den bestimmten Zweck, berechtigten Interessen beruhen darauf, mehr als auf den Inhalt. Du kannst mehr darüber in unseren Privaten und Cookie Politik lesen.